Location: Haskovo
(41.9227°N, 25.5707°E)
Time: 21:16:55
(UTC+03:00)

ISS - Pass Details

Date: 26 May 2025
Orbit: 415 x 417 km, 51.6° (Epoch: 16 June)

Event Time Altitude Azimuth Distance (km) Brightness Sun altitude
Rises 22:31:52 0° 294° (WNW) 2,358 1.2 -16.4°
Reaches altitude 10° 22:34:16 10° 278° (W) 1,490 -0.3 -16.7°
Maximum altitude 22:36:53 22° 226° (SW) 976 -2.0 -17.0°
Enters shadow 22:37:29 20° 210° (SSW) 1,008 -2.1 -17.1°
